SKYNET 5A

Last updated on Sun Jul 06 2025 00:02:43 GMT+0000 (Coordinated Universal Time)

1 30794U 07007B 25186.58364834 -.00000260 00000+0 00000+0 0 9997 2 30794 4.4156 77.9730 0003275 26.4554 124.7081 1.00273000 67224
UTC large
Height (km)
Speed (km/s)
/
Latitude / Longitude
Inclination (degrees)
Orbital Period (minutes)
Azimuth
Elevation
Range (km)
Doppler Factor

Next 0 passes for location: London (51.5072 / 0.1276)

Sorry there are no passes over London.